If you wish to contribute or participate in the discussions about articles you are invited to join SKYbrary as a registered user

 Actions

Toussus-le-Noble Airport

From SKYbrary Wiki

LFPN
Airport
ICAO: LFPN – IATA: TNF
Summary
Name Toussus-le-Noble Airport
Region Europe
Territory France FR.gif
Location , Ile-de-France
Serving Toussous-le-noble
Elevation 163.982 m
538 ft
538 ft163.982 m
Type medium airport
Coordinates 48° 45' 6.92" N, 2° 6' 22.28" E
Runways
Designator Length Width Surface ROPS
07L/25R 1100 m3,608.924 ft
30 m98.425 ft
ASP /
07R/25L 1050 m3,444.882 ft
30 m98.425 ft
ASP /


METAR
Observation LFPN 260030Z AUTO 33002KT 9999 FEW001 BKN140 BKN200 18/12 Q1018
Station Toussus Le Noble
Date/Time 26 August 2019 00:30:00
Wind direction 330°
Wind speed 02 kts
Lowest cloud amount few clouds
Temperature 18°C
Dew point 12°C
Humidity 67%
QNH 1018 hPa
Weather condition n/a